Slayton, MN

9:09 PM CST on December 11, 2017 (GMT -0600)
Slayton

Weather History for KDVP - July, 2013

Change the Weather History Date:

Saturday, July 20, 2013

  Actual Average (KOTG) Record (KOTG)
Temperature  
Mean Temperature 70 °F -  
Max Temperature 81 °F 78 °F 95 °F (1983)
Min Temperature 61 °F 60 °F 51 °F (2007)
Cooling Degree Days 6    
Growing Degree Days 20 (Base 50)    
Moisture  
Dew Point 60 °F    
Average Humidity 70    
Maximum Humidity 91    
Minimum Humidity 47    
Precipitation  
Precipitation 0.00 in - - ()
Sea Level Pressure  
Sea Level Pressure 29.98 in    
Wind  
Wind Speed 5 mph (West)    
Max Wind Speed 13 mph    
Max Gust Speed -    
Visibility 10 miles    
Events      
Averages and records for this station are not official NWS values.
T = Trace of Precipitation, MM = Missing Value Source: NWS Daily Summary

Daily Weather History Graph

Daily Weather History Graph

Search for Another Location

Airport or City:

Trip Planner

Search our weather history database for the weather conditions in past years. The results will help you decide how hot, cold, wet, or windy it might be!

Date:

Astronomy

Jul. 20, 2013 Rise Set
Actual Time 5:59 AM CDT 8:59 PM CDT
Civil Twilight 5:24 AM CDT 9:33 PM CDT
Nautical Twilight 4:40 AM CDT 10:17 PM CDT
Astronomical Twilight 3:48 AM CDT 11:09 PM CDT
Moon 7:03 PM CDT (7/20) 3:40 AM CDT (7/20)
Length of Visible Light 16h 08m
Length of Day
15h 00m
Waxing Gibbous, 94% of the Moon is Illuminated
Jul 20
Waxing Gibbous
Jul 22
Full
Jul 29
Last Quarter
Aug 6
New
Aug 14
First Quarter

Hourly Weather History & Observations

Time (CDT) Temp. Heat Index Dew Point Humidity Pressure Visibility Wind Dir Wind Speed Gust Speed Precip Events Conditions
12:14 AM 65.3 °F - 58.1 °F 77% 29.98 in 10.0 mi West 3.5 mph - N/A   Clear
12:33 AM 63.5 °F - 58.1 °F 83% 29.98 in 10.0 mi West 3.5 mph - N/A   Clear
12:53 AM 64.2 °F - 57.7 °F 79% 29.98 in 10.0 mi Calm Calm - N/A   Clear
1:13 AM 63.3 °F - 57.7 °F 82% 29.99 in 10.0 mi SW 4.6 mph - N/A   Clear
1:34 AM 63.3 °F - 57.9 °F 83% 29.99 in 10.0 mi WSW 3.5 mph - N/A   Clear
1:53 AM 63.3 °F - 57.6 °F 81% 29.98 in 10.0 mi SSW 8.1 mph - N/A   Clear
2:13 AM 61.9 °F - 57.4 °F 85% 29.97 in 10.0 mi SW 4.6 mph - N/A   Clear
2:33 AM 62.1 °F - 57.2 °F 84% 29.96 in 10.0 mi SW 8.1 mph - N/A   Clear
2:53 AM 62.6 °F - 57.2 °F 82% 29.96 in 10.0 mi WSW 5.8 mph - N/A   Clear
3:13 AM 64.4 °F - 57.6 °F 78% 29.97 in 10.0 mi WSW 4.6 mph - N/A   Clear
3:33 AM 64.8 °F - 57.2 °F 76% 29.96 in 10.0 mi SW 5.8 mph - N/A   Clear
3:53 AM 63.7 °F - 57.7 °F 81% 29.97 in 10.0 mi Calm Calm - N/A   Clear
4:13 AM 64.8 °F - 58.1 °F 79% 29.96 in 10.0 mi WSW 4.6 mph - N/A   Clear
4:34 AM 62.8 °F - 57.4 °F 82% 29.96 in 10.0 mi SW 3.5 mph - N/A   Clear
4:53 AM 62.8 °F - 57.6 °F 83% 29.96 in 10.0 mi Calm Calm - N/A   Clear
5:13 AM 62.2 °F - 57.9 °F 86% 29.96 in 10.0 mi NNW 3.5 mph - N/A   Clear
5:33 AM 62.8 °F - 58.1 °F 85% 29.97 in 10.0 mi WNW 5.8 mph - N/A   Clear
5:54 AM 62.1 °F - 58.3 °F 87% 29.98 in 10.0 mi NW 3.5 mph - N/A   Clear
6:13 AM 62.1 °F - 59.0 °F 90% 29.99 in 10.0 mi WNW 6.9 mph - N/A   Clear
6:34 AM 61.9 °F - 59.4 °F 91% 30.01 in 10.0 mi WNW 5.8 mph - N/A   Clear
6:53 AM 63.0 °F - 59.4 °F 88% 30.01 in 10.0 mi WNW 4.6 mph - N/A   Clear
7:13 AM 65.8 °F - 58.3 °F 77% 30.02 in 10.0 mi West 12.7 mph - N/A   Clear
7:33 AM 65.8 °F - 58.5 °F 77% 30.01 in 10.0 mi West 10.4 mph - N/A   Clear
7:53 AM 65.5 °F - 58.3 °F 77% 30.01 in 10.0 mi West 10.4 mph - N/A   Clear
8:14 AM 65.7 °F - 58.3 °F 77% 30.01 in 10.0 mi West 9.2 mph - N/A   Scattered Clouds
8:33 AM 66.2 °F - 58.6 °F 77% 30.00 in 10.0 mi West 9.2 mph - N/A   Scattered Clouds
8:54 AM 66.9 °F - 59.2 °F 76% 29.99 in 10.0 mi WNW 8.1 mph - N/A   Clear
9:13 AM 66.4 °F - 59.9 °F 80% 29.99 in 10.0 mi NNW 6.9 mph - N/A   Clear
9:33 AM 67.1 °F - 60.6 °F 80% 29.98 in 10.0 mi North 8.1 mph - N/A   Clear
9:53 AM 68.0 °F - 60.8 °F 78% 29.98 in 10.0 mi NNW 6.9 mph - N/A   Clear
10:14 AM 68.9 °F - 60.4 °F 74% 29.98 in 10.0 mi North 4.6 mph - N/A   Clear
10:33 AM 70.7 °F - 60.8 °F 71% 29.99 in 10.0 mi NW 6.9 mph - N/A   Clear
10:54 AM 71.4 °F - 60.3 °F 68% 29.99 in 10.0 mi NNW 5.8 mph - N/A   Clear
11:13 AM 74.3 °F - 59.9 °F 61% 30.00 in 10.0 mi NNW 9.2 mph - N/A   Clear
11:33 AM 75.6 °F - 60.3 °F 59% 30.00 in 10.0 mi North 8.1 mph - N/A   Clear
11:53 AM 76.3 °F - 60.8 °F 59% 30.00 in 10.0 mi NNE 9.2 mph - N/A   Clear
12:13 PM 76.3 °F - 60.3 °F 57% 30.00 in 10.0 mi North 9.2 mph - N/A   Clear
12:33 PM 77.0 °F - 61.2 °F 58% 29.99 in 10.0 mi North 8.1 mph - N/A   Scattered Clouds
12:53 PM 75.9 °F - 59.9 °F 57% 30.00 in 10.0 mi North 9.2 mph - N/A   Mostly Cloudy
1:13 PM 76.5 °F - 61.3 °F 59% 29.99 in 10.0 mi NE 6.9 mph - N/A   Scattered Clouds
1:33 PM 76.8 °F - 60.3 °F 56% 29.98 in 10.0 mi North 8.1 mph - N/A   Scattered Clouds
1:52 PM 77.0 °F - 59.5 °F 55% 29.98 in 10.0 mi ENE 3.5 mph - N/A   Mostly Cloudy
2:13 PM 77.4 °F - 60.3 °F 55% 29.97 in 10.0 mi NE 6.9 mph - N/A   Scattered Clouds
2:33 PM 77.9 °F - 59.5 °F 53% 29.98 in 10.0 mi ENE 3.5 mph - N/A   Clear
2:53 PM 79.3 °F - 58.5 °F 49% 29.97 in 10.0 mi Calm Calm - N/A   Clear
3:13 PM 80.1 °F 80.9 °F 60.1 °F 50% 29.97 in 10.0 mi NE 3.5 mph - N/A   Scattered Clouds
3:33 PM 79.5 °F - 59.4 °F 50% 29.97 in 10.0 mi Calm Calm - N/A   Mostly Cloudy
3:53 PM 80.2 °F 81.0 °F 59.9 °F 50% 29.98 in 10.0 mi SE 3.5 mph - N/A   Scattered Clouds
4:13 PM 80.8 °F 81.2 °F 59.0 °F 47% 29.98 in 10.0 mi South 4.6 mph - N/A   Scattered Clouds
4:33 PM 80.2 °F 80.9 °F 59.7 °F 49% 29.97 in 10.0 mi SW 4.6 mph - N/A   Scattered Clouds
4:53 PM 79.0 °F - 60.4 °F 53% 29.96 in 10.0 mi SE 5.8 mph - N/A   Mostly Cloudy
5:13 PM 80.6 °F 81.2 °F 60.1 °F 49% 29.96 in 10.0 mi South 4.6 mph - N/A   Scattered Clouds
5:34 PM 79.9 °F - 60.1 °F 51% 29.96 in 10.0 mi South 4.6 mph - N/A   Mostly Cloudy
5:53 PM 79.9 °F - 60.8 °F 52% 29.95 in 10.0 mi South 6.9 mph - N/A   Mostly Cloudy
6:13 PM 80.1 °F 81.0 °F 60.6 °F 51% 29.95 in 10.0 mi South 8.1 mph - N/A   Scattered Clouds
6:33 PM 78.3 °F - 60.3 °F 54% 29.95 in 10.0 mi South 5.8 mph - N/A   Clear
6:52 PM 79.2 °F - 60.4 °F 53% 29.95 in 10.0 mi SSE 6.9 mph - N/A   Clear
7:13 PM 77.7 °F - 60.4 °F 55% 29.94 in 10.0 mi South 5.8 mph - N/A   Clear
7:34 PM 77.7 °F - 61.9 °F 58% 29.94 in 10.0 mi SE 5.8 mph - N/A   Clear
7:53 PM 77.2 °F - 61.0 °F 57% 29.95 in 10.0 mi SSE 3.5 mph - N/A   Scattered Clouds
8:13 PM 76.1 °F - 62.8 °F 63% 29.94 in 10.0 mi South 3.5 mph - N/A   Mostly Cloudy
8:33 PM 74.7 °F - 64.2 °F 70% 29.94 in 10.0 mi South 3.5 mph - N/A   Mostly Cloudy
8:53 PM 72.3 °F - 64.9 °F 78% 29.94 in 10.0 mi Calm Calm - N/A   Scattered Clouds
9:13 PM 73.0 °F - 64.0 °F 73% 29.95 in 10.0 mi Calm Calm - N/A   Scattered Clouds
9:33 PM 72.5 °F - 63.7 °F 74% 29.96 in 10.0 mi Calm Calm - N/A   Mostly Cloudy
9:53 PM 72.5 °F - 63.0 °F 72% 29.97 in 10.0 mi Calm Calm - N/A   Overcast
10:13 PM 71.8 °F - 63.1 °F 74% 29.98 in 10.0 mi Calm Calm - N/A   Overcast
10:33 PM 69.8 °F - 63.7 °F 81% 29.97 in 10.0 mi ENE 4.6 mph - N/A   Scattered Clouds
10:53 PM 69.4 °F - 63.3 °F 81% 29.97 in 10.0 mi ENE 3.5 mph - N/A   Clear
11:12 PM 69.4 °F - 62.6 °F 79% 29.97 in 10.0 mi East 4.6 mph - N/A   Clear
11:33 PM 68.9 °F - 62.2 °F 79% 29.97 in 10.0 mi East 4.6 mph - N/A   Clear
11:54 PM 68.2 °F - 62.6 °F 82% 29.97 in 10.0 mi ENE 4.6 mph - N/A   Clear